Year,Month,Day,Hour,Minute,Value (Times are PST for temperature in C)
2010,03,23,00,00,6.20
2010,03,23,00,01,6.20
2010,03,23,00,02,6.20
2010,03,23,00,03,6.30
2010,03,23,00,04,6.20
2010,03,23,00,05,6.30
2010,03,23,00,06,6.30
2010,03,23,00,07,6.30
2010,03,23,00,08,6.30
2010,03,23,00,09,6.30
2010,03,23,00,10,6.30
2010,03,23,00,11,6.30
2010,03,23,00,12,6.30
2010,03,23,00,13,6.30
2010,03,23,00,14,6.30
2010,03,23,00,15,6.30
2010,03,23,00,16,6.40
2010,03,23,00,17,6.40
2010,03,23,00,18,6.50
2010,03,23,00,19,6.60
2010,03,23,00,20,6.60
2010,03,23,00,21,6.60
2010,03,23,00,22,6.60
2010,03,23,00,23,6.60
2010,03,23,00,24,6.60
2010,03,23,00,25,6.60
2010,03,23,00,26,6.60
2010,03,23,00,27,6.60
2010,03,23,00,28,6.60
2010,03,23,00,29,6.60
2010,03,23,00,30,6.60
2010,03,23,00,31,6.60
2010,03,23,00,32,6.50
2010,03,23,00,33,6.50
2010,03,23,00,34,6.50
2010,03,23,00,35,6.40
2010,03,23,00,36,6.40
2010,03,23,00,37,6.40
2010,03,23,00,38,6.30
2010,03,23,00,39,6.30
2010,03,23,00,40,6.30
2010,03,23,00,41,6.30
2010,03,23,00,42,6.30
2010,03,23,00,43,6.30
2010,03,23,00,44,6.30
2010,03,23,00,45,6.30
2010,03,23,00,46,6.30
2010,03,23,00,47,6.30
2010,03,23,00,48,6.30
2010,03,23,00,49,6.30
2010,03,23,00,50,6.40
2010,03,23,00,51,6.40
2010,03,23,00,52,6.50
2010,03,23,00,53,6.50
2010,03,23,00,54,6.50
2010,03,23,00,55,6.50
2010,03,23,00,56,6.50
2010,03,23,00,57,6.50
2010,03,23,00,58,6.40
2010,03,23,00,59,6.40
2010,03,23,01,00,6.30
2010,03,23,01,01,6.30
2010,03,23,01,02,6.20
2010,03,23,01,03,6.20
2010,03,23,01,04,6.20
2010,03,23,01,05,6.10
2010,03,23,01,06,6.10
2010,03,23,01,07,6.10
2010,03,23,01,08,6.10
2010,03,23,01,09,6.10
2010,03,23,01,10,6.10
2010,03,23,01,11,6.10
2010,03,23,01,12,6.10
2010,03,23,01,13,6.10
2010,03,23,01,14,6.10
2010,03,23,01,15,6.10
2010,03,23,01,16,6.10
2010,03,23,01,17,6.10
2010,03,23,01,18,6.10
2010,03,23,01,19,6.10
2010,03,23,01,20,6.10
2010,03,23,01,21,6.10
2010,03,23,01,22,6.10
2010,03,23,01,23,6.10
2010,03,23,01,24,6.10
2010,03,23,01,25,6.10
2010,03,23,01,26,6.10
2010,03,23,01,27,6.10
2010,03,23,01,28,6.10
2010,03,23,01,29,6.10
2010,03,23,01,30,6.10
2010,03,23,01,31,6.00
2010,03,23,01,32,6.10
2010,03,23,01,33,6.10
2010,03,23,01,34,6.00
2010,03,23,01,35,6.00
2010,03,23,01,36,6.00
2010,03,23,01,37,6.00
2010,03,23,01,38,6.00
2010,03,23,01,39,5.90
2010,03,23,01,40,5.90
2010,03,23,01,41,5.90
2010,03,23,01,42,5.90
2010,03,23,01,43,5.90
2010,03,23,01,44,5.90
2010,03,23,01,45,5.90
2010,03,23,01,46,5.90
2010,03,23,01,47,5.90
2010,03,23,01,48,5.80
2010,03,23,01,49,5.80
2010,03,23,01,50,5.80
2010,03,23,01,51,5.80
2010,03,23,01,52,5.80
2010,03,23,01,53,5.70
2010,03,23,01,54,5.70
2010,03,23,01,55,5.70
2010,03,23,01,56,5.70
2010,03,23,01,57,5.70
2010,03,23,01,58,5.60
2010,03,23,01,59,5.60
2010,03,23,02,00,5.60
2010,03,23,02,01,5.60
2010,03,23,02,02,5.60
2010,03,23,02,03,5.60
2010,03,23,02,04,5.50
2010,03,23,02,05,5.50
2010,03,23,02,06,5.50
2010,03,23,02,07,5.40
2010,03,23,02,08,5.40
2010,03,23,02,09,5.40
2010,03,23,02,10,5.40
2010,03,23,02,11,5.40
2010,03,23,02,12,5.40
2010,03,23,02,13,5.40
2010,03,23,02,14,5.40
2010,03,23,02,15,5.40
2010,03,23,02,16,5.40
2010,03,23,02,17,5.40
2010,03,23,02,18,5.40
2010,03,23,02,19,5.40
2010,03,23,02,20,5.40
2010,03,23,02,21,5.40
2010,03,23,02,22,5.30
2010,03,23,02,23,5.30
2010,03,23,02,24,5.30
2010,03,23,02,25,5.30
2010,03,23,02,26,5.30
2010,03,23,02,27,5.20
2010,03,23,02,28,5.20
2010,03,23,02,29,5.20
2010,03,23,02,30,5.20
2010,03,23,02,31,5.10
2010,03,23,02,32,5.10
2010,03,23,02,33,5.00
2010,03,23,02,34,5.00
2010,03,23,02,35,4.90
2010,03,23,02,36,4.90
2010,03,23,02,37,4.90
2010,03,23,02,38,4.90
2010,03,23,02,39,4.80
2010,03,23,02,40,4.80
2010,03,23,02,41,4.80
2010,03,23,02,42,4.80
2010,03,23,02,43,4.80
2010,03,23,02,44,4.80
2010,03,23,02,45,4.80
2010,03,23,02,46,4.80
2010,03,23,02,47,4.80
2010,03,23,02,48,4.80
2010,03,23,02,49,4.80
2010,03,23,02,50,4.90
2010,03,23,02,51,4.90
2010,03,23,02,52,4.90
2010,03,23,02,53,4.90
2010,03,23,02,54,4.80
2010,03,23,02,55,4.80
2010,03,23,02,56,4.80
2010,03,23,02,57,4.80
2010,03,23,02,58,4.80
2010,03,23,02,59,4.80
2010,03,23,03,00,4.80
2010,03,23,03,01,4.80
2010,03,23,03,02,4.80
2010,03,23,03,03,4.70
2010,03,23,03,04,4.70
2010,03,23,03,05,4.70
2010,03,23,03,06,4.60
2010,03,23,03,07,4.60
2010,03,23,03,08,4.60
2010,03,23,03,09,4.60
2010,03,23,03,10,4.60
2010,03,23,03,11,4.60
2010,03,23,03,12,4.60
2010,03,23,03,13,4.60
2010,03,23,03,14,4.50
2010,03,23,03,15,4.50
2010,03,23,03,16,4.50
2010,03,23,03,17,4.50
2010,03,23,03,18,4.50
2010,03,23,03,19,4.50
2010,03,23,03,20,4.40
2010,03,23,03,21,4.40
2010,03,23,03,22,4.40
2010,03,23,03,23,4.40
2010,03,23,03,24,4.40
2010,03,23,03,25,4.40
2010,03,23,03,26,4.40
2010,03,23,03,27,4.40
2010,03,23,03,28,4.40
2010,03,23,03,29,4.40
2010,03,23,03,30,4.30
2010,03,23,03,31,4.30
2010,03,23,03,32,4.30
2010,03,23,03,33,4.30
2010,03,23,03,34,4.30
2010,03,23,03,35,4.30
2010,03,23,03,36,4.30
2010,03,23,03,37,4.30
2010,03,23,03,38,4.30
2010,03,23,03,39,4.20
2010,03,23,03,40,4.20
2010,03,23,03,41,4.20
2010,03,23,03,42,4.20
2010,03,23,03,43,4.20
2010,03,23,03,44,4.20
2010,03,23,03,45,4.20
2010,03,23,03,46,4.20
2010,03,23,03,47,4.20
2010,03,23,03,48,4.20
2010,03,23,03,49,4.20
2010,03,23,03,50,4.20
2010,03,23,03,51,4.20
2010,03,23,03,52,4.20
2010,03,23,03,53,4.20
2010,03,23,03,54,4.20
2010,03,23,03,55,4.20
2010,03,23,03,56,4.20
2010,03,23,03,57,4.20
2010,03,23,03,58,4.20
2010,03,23,03,59,4.20
2010,03,23,04,00,4.20
2010,03,23,04,01,4.10
2010,03,23,04,02,4.10
2010,03,23,04,03,4.10
2010,03,23,04,04,4.10
2010,03,23,04,05,4.10
2010,03,23,04,06,4.10
2010,03,23,04,07,4.10
2010,03,23,04,08,4.10
2010,03,23,04,09,4.10
2010,03,23,04,10,4.10
2010,03,23,04,11,4.10
2010,03,23,04,12,4.00
2010,03,23,04,13,4.00
2010,03,23,04,14,3.90
2010,03,23,04,15,3.90
2010,03,23,04,16,3.90
2010,03,23,04,17,3.80
2010,03,23,04,18,3.80
2010,03,23,04,19,3.80
2010,03,23,04,20,3.80
2010,03,23,04,21,3.80
2010,03,23,04,22,3.80
2010,03,23,04,23,3.80
2010,03,23,04,24,3.70
2010,03,23,04,25,3.70
2010,03,23,04,26,3.70
2010,03,23,04,27,3.80
2010,03,23,04,28,3.80
2010,03,23,04,29,3.80
2010,03,23,04,30,3.80
2010,03,23,04,31,3.80
2010,03,23,04,32,3.80
2010,03,23,04,33,3.70
2010,03,23,04,34,3.70
2010,03,23,04,35,3.70
2010,03,23,04,36,3.70
2010,03,23,04,37,3.70
2010,03,23,04,38,3.60
2010,03,23,04,39,3.60
2010,03,23,04,40,3.60
2010,03,23,04,41,3.50
2010,03,23,04,42,3.50
2010,03,23,04,43,3.50
2010,03,23,04,44,3.40
2010,03,23,04,45,3.40
2010,03,23,04,46,3.40
2010,03,23,04,47,3.40
2010,03,23,04,48,3.40
2010,03,23,04,49,3.40
2010,03,23,04,50,3.40
2010,03,23,04,51,3.40
2010,03,23,04,52,3.40
2010,03,23,04,53,3.40
2010,03,23,04,54,3.50
2010,03,23,04,55,3.50
2010,03,23,04,56,3.60
2010,03,23,04,57,3.60
2010,03,23,04,58,3.60
2010,03,23,04,59,3.60
2010,03,23,05,00,3.60
2010,03,23,05,01,3.60
2010,03,23,05,02,3.60
2010,03,23,05,03,3.60
2010,03,23,05,04,3.50
2010,03,23,05,05,3.50
2010,03,23,05,06,3.50
2010,03,23,05,07,3.40
2010,03,23,05,08,3.40
2010,03,23,05,09,3.40
2010,03,23,05,10,3.40
2010,03,23,05,11,3.40
2010,03,23,05,12,3.40
2010,03,23,05,13,3.40
2010,03,23,05,14,3.40
2010,03,23,05,15,3.30
2010,03,23,05,16,3.30
2010,03,23,05,17,3.30
2010,03,23,05,18,3.20
2010,03,23,05,19,3.20
2010,03,23,05,20,3.20
2010,03,23,05,21,3.20
2010,03,23,05,22,3.10
2010,03,23,05,23,3.10
2010,03,23,05,24,3.10
2010,03,23,05,25,3.10
2010,03,23,05,26,3.10
2010,03,23,05,27,3.10
2010,03,23,05,28,3.00
2010,03,23,05,29,3.00
2010,03,23,05,30,3.00
2010,03,23,05,31,2.90
2010,03,23,05,32,2.90
2010,03,23,05,33,2.90
2010,03,23,05,34,2.90
2010,03,23,05,35,2.90
2010,03,23,05,36,2.90
2010,03,23,05,37,2.90
2010,03,23,05,38,2.90
2010,03,23,05,39,3.00
2010,03,23,05,40,3.10
2010,03,23,05,41,3.10
2010,03,23,05,42,3.00
2010,03,23,05,43,3.10
2010,03,23,05,44,3.10
2010,03,23,05,45,3.10
2010,03,23,05,46,3.10
2010,03,23,05,47,3.10
2010,03,23,05,48,3.10
2010,03,23,05,49,3.10
2010,03,23,05,50,3.10
2010,03,23,05,51,3.10
2010,03,23,05,52,3.10
2010,03,23,05,53,3.00
2010,03,23,05,54,3.00
2010,03,23,05,55,3.00
2010,03,23,05,56,2.90
2010,03,23,05,57,2.90
2010,03,23,05,58,2.90
2010,03,23,05,59,3.00
2010,03,23,06,00,3.00
2010,03,23,06,01,3.00
2010,03,23,06,02,3.00
2010,03,23,06,03,3.00
2010,03,23,06,04,3.00
2010,03,23,06,05,3.10
2010,03,23,06,06,3.00
2010,03,23,06,07,3.00
2010,03,23,06,08,3.00
2010,03,23,06,09,3.00
2010,03,23,06,10,2.90
2010,03,23,06,11,2.90
2010,03,23,06,12,2.90
2010,03,23,06,13,2.90
2010,03,23,06,14,2.90
2010,03,23,06,15,2.90
2010,03,23,06,16,2.90
2010,03,23,06,17,2.90
2010,03,23,06,18,2.90
2010,03,23,06,19,2.90
2010,03,23,06,20,2.90
2010,03,23,06,21,2.90
2010,03,23,06,22,2.90
2010,03,23,06,23,2.90
2010,03,23,06,24,2.90
2010,03,23,06,25,2.90
2010,03,23,06,26,2.90
2010,03,23,06,27,2.90
2010,03,23,06,28,2.90
2010,03,23,06,29,2.90
2010,03,23,06,30,2.90
2010,03,23,06,31,2.90
2010,03,23,06,32,2.90
2010,03,23,06,33,2.90
2010,03,23,06,34,2.90
2010,03,23,06,35,2.90
2010,03,23,06,36,2.90
2010,03,23,06,37,2.80
2010,03,23,06,38,2.80
2010,03,23,06,39,2.80
2010,03,23,06,40,2.80
2010,03,23,06,41,2.90
2010,03,23,06,42,2.90
2010,03,23,06,43,2.90
2010,03,23,06,44,2.90
2010,03,23,06,45,2.90
2010,03,23,06,46,2.90
2010,03,23,06,47,2.90
2010,03,23,06,48,2.90
2010,03,23,06,49,2.90
2010,03,23,06,50,2.90
2010,03,23,06,51,2.90
2010,03,23,06,52,2.90
2010,03,23,06,53,2.90
2010,03,23,06,54,2.90
2010,03,23,06,55,2.80
2010,03,23,06,56,2.80
2010,03,23,06,57,2.80
2010,03,23,06,58,2.70
2010,03,23,06,59,2.70
2010,03,23,07,00,2.60
2010,03,23,07,01,2.60
2010,03,23,07,02,2.60
2010,03,23,07,03,2.60
2010,03,23,07,04,2.70
2010,03,23,07,05,2.70
2010,03,23,07,06,2.70
2010,03,23,07,07,2.70
2010,03,23,07,08,2.70
2010,03,23,07,09,2.70
2010,03,23,07,10,2.70
2010,03,23,07,11,2.70
2010,03,23,07,12,2.70
2010,03,23,07,13,2.70
2010,03,23,07,14,2.70
2010,03,23,07,15,2.70
2010,03,23,07,16,2.70
2010,03,23,07,17,2.70
2010,03,23,07,18,2.70
2010,03,23,07,19,2.70
2010,03,23,07,20,2.70
2010,03,23,07,21,2.70
2010,03,23,07,22,2.70
2010,03,23,07,23,2.70
2010,03,23,07,24,2.70
2010,03,23,07,25,2.70
2010,03,23,07,26,2.60
2010,03,23,07,27,2.60
2010,03,23,07,28,2.60
2010,03,23,07,29,2.60
2010,03,23,07,30,2.50
2010,03,23,07,31,2.50
2010,03,23,07,32,2.50
2010,03,23,07,33,2.50
2010,03,23,07,34,2.60
2010,03,23,07,35,2.60
2010,03,23,07,36,2.60
2010,03,23,07,37,2.60
2010,03,23,07,38,2.60
2010,03,23,07,39,2.60
2010,03,23,07,40,2.60
2010,03,23,07,41,2.60
2010,03,23,07,42,2.60
2010,03,23,07,43,2.60
2010,03,23,07,44,2.60
2010,03,23,07,45,2.70
2010,03,23,07,46,2.60
2010,03,23,07,47,2.60
2010,03,23,07,48,2.60
2010,03,23,07,49,2.60
2010,03,23,07,50,2.60
2010,03,23,07,51,2.60
2010,03,23,07,52,2.60
2010,03,23,07,53,2.70
2010,03,23,07,54,2.70
2010,03,23,07,55,2.70
2010,03,23,07,56,2.70
2010,03,23,07,57,2.80
2010,03,23,07,58,2.80
2010,03,23,07,59,2.90
2010,03,23,08,00,2.90
2010,03,23,08,01,3.00
2010,03,23,08,02,3.10
2010,03,23,08,03,3.10
2010,03,23,08,04,3.10
2010,03,23,08,05,3.20
2010,03,23,08,06,3.20
2010,03,23,08,07,3.20
2010,03,23,08,08,3.20
2010,03,23,08,09,3.20
2010,03,23,08,10,3.30
2010,03,23,08,11,3.30
2010,03,23,08,12,3.30
2010,03,23,08,13,3.40
2010,03,23,08,14,3.40
2010,03,23,08,15,3.50
2010,03,23,08,16,3.50
2010,03,23,08,17,3.60
2010,03,23,08,18,3.60
2010,03,23,08,19,3.70
2010,03,23,08,20,3.70
2010,03,23,08,21,3.80
2010,03,23,08,22,3.80
2010,03,23,08,23,3.90
2010,03,23,08,24,4.00
2010,03,23,08,25,4.00
2010,03,23,08,26,4.10
2010,03,23,08,27,4.20
2010,03,23,08,28,4.20
2010,03,23,08,29,4.30
2010,03,23,08,30,4.30
2010,03,23,08,31,4.40
2010,03,23,08,32,4.40
2010,03,23,08,33,4.40
2010,03,23,08,34,4.50
2010,03,23,08,35,4.50
2010,03,23,08,36,4.60
2010,03,23,08,37,4.70
2010,03,23,08,38,4.70
2010,03,23,08,39,4.80
2010,03,23,08,40,4.80
2010,03,23,08,41,4.90
2010,03,23,08,42,4.90
2010,03,23,08,43,4.90
2010,03,23,08,44,4.90
2010,03,23,08,45,4.90
2010,03,23,08,46,4.90
2010,03,23,08,47,4.90
2010,03,23,08,48,4.90
2010,03,23,08,49,4.90
2010,03,23,08,50,4.90
2010,03,23,08,51,4.90
2010,03,23,08,52,5.00
2010,03,23,08,53,5.00
2010,03,23,08,54,5.00
2010,03,23,08,55,5.10
2010,03,23,08,56,5.10
2010,03,23,08,57,5.10
2010,03,23,08,58,5.20
2010,03,23,08,59,5.20
2010,03,23,09,00,5.30
2010,03,23,09,01,5.30
2010,03,23,09,02,5.40
2010,03,23,09,03,5.40
2010,03,23,09,04,5.40
2010,03,23,09,05,5.40
2010,03,23,09,06,5.50
2010,03,23,09,07,5.50
2010,03,23,09,08,5.60
2010,03,23,09,09,5.60
2010,03,23,09,10,5.70
2010,03,23,09,11,5.70
2010,03,23,09,12,5.70
2010,03,23,09,13,5.70
2010,03,23,09,14,5.80
2010,03,23,09,15,5.80
2010,03,23,09,16,5.90
2010,03,23,09,17,6.00
2010,03,23,09,18,6.00
2010,03,23,09,19,6.10
2010,03,23,09,20,6.20
2010,03,23,09,21,6.30
2010,03,23,09,22,6.40
2010,03,23,09,23,6.50
2010,03,23,09,24,6.60
2010,03,23,09,25,6.70
2010,03,23,09,26,6.80
2010,03,23,09,27,6.90
2010,03,23,09,28,7.00
2010,03,23,09,29,7.10
2010,03,23,09,30,7.20
2010,03,23,09,31,7.20
2010,03,23,09,32,7.30
2010,03,23,09,33,7.30
2010,03,23,09,34,7.30
2010,03,23,09,35,7.30
2010,03,23,09,36,7.40
2010,03,23,09,37,7.40
2010,03,23,09,38,7.40
2010,03,23,09,39,7.40
2010,03,23,09,40,7.40
2010,03,23,09,41,7.40
2010,03,23,09,42,7.40
2010,03,23,09,43,7.40
2010,03,23,09,44,7.50
2010,03,23,09,45,7.50
2010,03,23,09,46,7.60
2010,03,23,09,47,7.70
2010,03,23,09,48,7.70
2010,03,23,09,49,7.80
2010,03,23,09,50,7.80
2010,03,23,09,51,7.90
2010,03,23,09,52,8.00
2010,03,23,09,53,8.00
2010,03,23,09,54,8.10
2010,03,23,09,55,8.20
2010,03,23,09,56,8.30
2010,03,23,09,57,8.30
2010,03,23,09,58,8.30
2010,03,23,09,59,8.40
2010,03,23,10,00,8.40
2010,03,23,10,01,8.40
2010,03,23,10,02,8.40
2010,03,23,10,03,8.40
2010,03,23,10,04,8.40
2010,03,23,10,05,8.40
2010,03,23,10,06,8.30
2010,03,23,10,07,8.30
2010,03,23,10,08,8.30
2010,03,23,10,09,8.30
2010,03,23,10,10,8.30
2010,03,23,10,11,8.30
2010,03,23,10,12,8.30
2010,03,23,10,13,8.30
2010,03,23,10,14,8.30
2010,03,23,10,15,8.30
2010,03,23,10,16,8.30
2010,03,23,10,17,8.30
2010,03,23,10,18,8.30
2010,03,23,10,19,8.30
2010,03,23,10,20,8.20
2010,03,23,10,21,8.20
2010,03,23,10,22,8.20
2010,03,23,10,23,8.20
2010,03,23,10,24,8.20
2010,03,23,10,25,8.20
2010,03,23,10,26,8.20
2010,03,23,10,27,8.20
2010,03,23,10,28,8.10
2010,03,23,10,29,8.20
2010,03,23,10,30,8.20
2010,03,23,10,31,8.20
2010,03,23,10,32,8.20
2010,03,23,10,33,8.30
2010,03,23,10,34,8.30
2010,03,23,10,35,8.30
2010,03,23,10,36,8.30
2010,03,23,10,37,8.40
2010,03,23,10,38,8.40
2010,03,23,10,39,8.50
2010,03,23,10,40,8.50
2010,03,23,10,41,8.60
2010,03,23,10,42,8.60
2010,03,23,10,43,8.60
2010,03,23,10,44,8.70
2010,03,23,10,45,8.70
2010,03,23,10,46,8.80
2010,03,23,10,47,8.80
2010,03,23,10,48,8.70
2010,03,23,10,49,8.70
2010,03,23,10,50,8.70
2010,03,23,10,51,8.70
2010,03,23,10,52,8.70
2010,03,23,10,53,8.70
2010,03,23,10,54,8.70
2010,03,23,10,55,8.70
2010,03,23,10,56,8.70
2010,03,23,10,57,8.80
2010,03,23,10,58,8.80
2010,03,23,10,59,8.80
2010,03,23,11,00,8.90
2010,03,23,11,01,8.90
2010,03,23,11,02,9.00
2010,03,23,11,03,8.90
2010,03,23,11,04,8.90
2010,03,23,11,05,9.00
2010,03,23,11,06,9.00
2010,03,23,11,07,9.00
2010,03,23,11,08,9.00
2010,03,23,11,09,9.00
2010,03,23,11,10,8.90
2010,03,23,11,11,8.90
2010,03,23,11,12,8.80
2010,03,23,11,13,8.80
2010,03,23,11,14,8.80
2010,03,23,11,15,8.80
2010,03,23,11,16,8.80
2010,03,23,11,17,8.70
2010,03,23,11,18,8.70
2010,03,23,11,19,8.80
2010,03,23,11,20,8.80
2010,03,23,11,21,8.80
2010,03,23,11,22,8.80
2010,03,23,11,23,8.80
2010,03,23,11,24,8.80
2010,03,23,11,25,8.90
2010,03,23,11,26,9.00
2010,03,23,11,27,9.10
2010,03,23,11,28,9.10
2010,03,23,11,29,9.20
2010,03,23,11,30,9.30
2010,03,23,11,31,9.30
2010,03,23,11,32,9.40
2010,03,23,11,33,9.40
2010,03,23,11,34,9.40
2010,03,23,11,35,9.50
2010,03,23,11,36,9.60
2010,03,23,11,37,9.50
2010,03,23,11,38,9.50
2010,03,23,11,39,9.40
2010,03,23,11,40,9.40
2010,03,23,11,41,9.40
2010,03,23,11,42,9.40
2010,03,23,11,43,9.40
2010,03,23,11,44,9.30
2010,03,23,11,45,9.30
2010,03,23,11,46,9.30
2010,03,23,11,47,9.30
2010,03,23,11,48,9.30
2010,03,23,11,49,9.40
2010,03,23,11,50,9.40
2010,03,23,11,51,9.40
2010,03,23,11,52,9.40
2010,03,23,11,53,9.40
2010,03,23,11,54,9.40
2010,03,23,11,55,9.50
2010,03,23,11,56,9.50
2010,03,23,11,57,9.60
2010,03,23,11,58,9.60
2010,03,23,11,59,9.60
2010,03,23,12,00,9.60
2010,03,23,12,01,9.70
2010,03,23,12,02,9.60
2010,03,23,12,03,9.60
2010,03,23,12,04,9.70
2010,03,23,12,05,9.60
2010,03,23,12,06,9.60
2010,03,23,12,07,9.60
2010,03,23,12,08,9.60
2010,03,23,12,09,9.60
2010,03,23,12,10,9.70
2010,03,23,12,11,9.70
2010,03,23,12,12,9.70
2010,03,23,12,13,9.80
2010,03,23,12,14,9.80
2010,03,23,12,15,9.80
2010,03,23,12,16,9.80
2010,03,23,12,17,9.80
2010,03,23,12,18,9.70
2010,03,23,12,19,9.70
2010,03,23,12,20,9.80
2010,03,23,12,21,9.80
2010,03,23,12,22,9.90
2010,03,23,12,23,10.00
2010,03,23,12,24,10.00
2010,03,23,12,25,10.10
2010,03,23,12,26,10.20
2010,03,23,12,27,10.30
2010,03,23,12,28,10.40
2010,03,23,12,29,10.40
2010,03,23,12,30,10.40
2010,03,23,12,31,10.40
2010,03,23,12,32,10.40
2010,03,23,12,33,10.30
2010,03,23,12,34,10.20
2010,03,23,12,35,10.20
2010,03,23,12,36,10.10
2010,03,23,12,37,10.00
2010,03,23,12,38,10.00
2010,03,23,12,39,10.00
2010,03,23,12,40,9.90
2010,03,23,12,41,9.90
2010,03,23,12,42,9.90
2010,03,23,12,43,9.90
2010,03,23,12,44,9.90
2010,03,23,12,45,9.90
2010,03,23,12,46,9.90
2010,03,23,12,47,9.90
2010,03,23,12,48,9.80
2010,03,23,12,49,9.80
2010,03,23,12,50,9.80
2010,03,23,12,51,9.80
2010,03,23,12,52,9.90
2010,03,23,12,53,9.90
2010,03,23,12,54,10.00
2010,03,23,12,55,9.90
2010,03,23,12,56,9.90
2010,03,23,12,57,9.90
2010,03,23,12,58,9.90
2010,03,23,12,59,9.90
2010,03,23,13,00,10.00
2010,03,23,13,01,10.10
2010,03,23,13,02,10.10
2010,03,23,13,03,10.20
2010,03,23,13,04,10.20
2010,03,23,13,05,10.30
2010,03,23,13,06,10.40
2010,03,23,13,07,10.40
2010,03,23,13,08,10.40
2010,03,23,13,09,10.40
2010,03,23,13,10,10.40
2010,03,23,13,11,10.40
2010,03,23,13,12,10.30
2010,03,23,13,13,10.20
2010,03,23,13,14,10.20
2010,03,23,13,15,10.10
2010,03,23,13,16,10.10
2010,03,23,13,17,10.10
2010,03,23,13,18,10.10
2010,03,23,13,19,10.20
2010,03,23,13,20,10.20
2010,03,23,13,21,10.20
2010,03,23,13,22,10.20
2010,03,23,13,23,10.20
2010,03,23,13,24,10.20
2010,03,23,13,25,10.20
2010,03,23,13,26,10.20
2010,03,23,13,27,10.20
2010,03,23,13,28,10.30
2010,03,23,13,29,10.30
2010,03,23,13,30,10.30
2010,03,23,13,31,10.20
2010,03,23,13,32,10.20
2010,03,23,13,33,10.30
2010,03,23,13,34,10.20
2010,03,23,13,35,10.20
2010,03,23,13,36,10.20
2010,03,23,13,37,10.10
2010,03,23,13,38,10.20
2010,03,23,13,39,10.20
2010,03,23,13,40,10.20
2010,03,23,13,41,10.30
2010,03,23,13,42,10.30
2010,03,23,13,43,10.40
2010,03,23,13,44,10.50
2010,03,23,13,45,10.60
2010,03,23,13,46,10.60
2010,03,23,13,47,10.50
2010,03,23,13,48,10.40
2010,03,23,13,49,10.40
2010,03,23,13,50,10.30
2010,03,23,13,51,10.30
2010,03,23,13,52,10.30
2010,03,23,13,53,10.20
2010,03,23,13,54,10.20
2010,03,23,13,55,10.20
2010,03,23,13,56,10.20
2010,03,23,13,57,10.10
2010,03,23,13,58,10.00
2010,03,23,13,59,10.00
2010,03,23,14,00,10.00
2010,03,23,14,01,10.00
2010,03,23,14,02,10.00
2010,03,23,14,03,10.10
2010,03,23,14,04,10.10
2010,03,23,14,05,10.20
2010,03,23,14,06,10.20
2010,03,23,14,07,10.30
2010,03,23,14,08,10.40
2010,03,23,14,09,10.50
2010,03,23,14,10,10.60
2010,03,23,14,11,10.70
2010,03,23,14,12,10.70
2010,03,23,14,13,10.70
2010,03,23,14,14,10.80
2010,03,23,14,15,10.80
2010,03,23,14,16,10.80
2010,03,23,14,17,10.70
2010,03,23,14,18,10.70
2010,03,23,14,19,10.70
2010,03,23,14,20,10.60
2010,03,23,14,21,10.60
2010,03,23,14,22,10.60
2010,03,23,14,23,10.50
2010,03,23,14,24,10.40
2010,03,23,14,25,10.40
2010,03,23,14,26,10.40
2010,03,23,14,27,10.40
2010,03,23,14,28,10.30
2010,03,23,14,29,10.30
2010,03,23,14,30,10.30
2010,03,23,14,31,10.30
2010,03,23,14,32,10.30
2010,03,23,14,33,10.30
2010,03,23,14,34,10.40
2010,03,23,14,35,10.40
2010,03,23,14,36,10.50
2010,03,23,14,37,10.50
2010,03,23,14,38,10.60
2010,03,23,14,39,10.60
2010,03,23,14,40,10.60
2010,03,23,14,41,10.60
2010,03,23,14,42,10.60
2010,03,23,14,43,10.60
2010,03,23,14,44,10.60
2010,03,23,14,45,10.50
2010,03,23,14,46,10.50
2010,03,23,14,47,10.50
2010,03,23,14,48,10.50
2010,03,23,14,49,10.50
2010,03,23,14,50,10.40
2010,03,23,14,51,10.30
2010,03,23,14,52,10.30
2010,03,23,14,53,10.20
2010,03,23,14,54,10.20
2010,03,23,14,55,10.20
2010,03,23,14,56,10.10
2010,03,23,14,57,10.10
2010,03,23,14,58,10.10
2010,03,23,14,59,10.20
2010,03,23,15,00,10.20
2010,03,23,15,01,10.20
2010,03,23,15,02,10.30
2010,03,23,15,03,10.30
2010,03,23,15,04,10.30
2010,03,23,15,05,10.40
2010,03,23,15,06,10.40
2010,03,23,15,07,10.40
2010,03,23,15,08,10.30
2010,03,23,15,09,10.40
2010,03,23,15,10,10.40
2010,03,23,15,11,10.40
2010,03,23,15,12,10.30
2010,03,23,15,13,10.30
2010,03,23,15,14,10.30
2010,03,23,15,15,10.40
2010,03,23,15,16,10.40
2010,03,23,15,17,10.50
2010,03,23,15,18,10.50
2010,03,23,15,19,10.60
2010,03,23,15,20,10.50
2010,03,23,15,21,10.50
2010,03,23,15,22,10.50
2010,03,23,15,23,10.50
2010,03,23,15,24,10.50
2010,03,23,15,25,10.50
2010,03,23,15,26,10.50
2010,03,23,15,27,10.50
2010,03,23,15,28,10.50
2010,03,23,15,29,10.50
2010,03,23,15,30,10.50
2010,03,23,15,31,10.50
2010,03,23,15,32,10.50
2010,03,23,15,33,10.50
2010,03,23,15,34,10.60
2010,03,23,15,35,10.60
2010,03,23,15,36,10.70
2010,03,23,15,37,10.70
2010,03,23,15,38,10.70
2010,03,23,15,39,10.80
2010,03,23,15,40,10.80
2010,03,23,15,41,10.90
2010,03,23,15,42,11.00
2010,03,23,15,43,11.00
2010,03,23,15,44,11.10
2010,03,23,15,45,11.20
2010,03,23,15,46,11.20
2010,03,23,15,47,11.30
2010,03,23,15,48,11.30
2010,03,23,15,49,11.20
2010,03,23,15,50,11.30
2010,03,23,15,51,11.30
2010,03,23,15,52,11.40
2010,03,23,15,53,11.50
2010,03,23,15,54,11.60
2010,03,23,15,55,11.70
2010,03,23,15,56,11.80
2010,03,23,15,57,11.80
2010,03,23,15,58,11.80
2010,03,23,15,59,11.70
2010,03,23,16,00,11.70
2010,03,23,16,01,11.60
2010,03,23,16,02,11.60
2010,03,23,16,03,11.50
2010,03,23,16,04,11.40
2010,03,23,16,05,11.40
2010,03,23,16,06,11.30
2010,03,23,16,07,11.30
2010,03,23,16,08,11.30
2010,03,23,16,09,11.20
2010,03,23,16,10,11.20
2010,03,23,16,11,11.20
2010,03,23,16,12,11.20
2010,03,23,16,13,11.30
2010,03,23,16,14,11.30
2010,03,23,16,15,11.30
2010,03,23,16,16,11.40
2010,03,23,16,17,11.40
2010,03,23,16,18,11.40
2010,03,23,16,19,11.40
2010,03,23,16,20,11.40
2010,03,23,16,21,11.40
2010,03,23,16,22,11.40
2010,03,23,16,23,11.50
2010,03,23,16,24,11.60
2010,03,23,16,25,11.80
2010,03,23,16,26,11.90
2010,03,23,16,27,12.00
2010,03,23,16,28,12.00
2010,03,23,16,29,12.10
2010,03,23,16,30,12.00
2010,03,23,16,31,11.90
2010,03,23,16,32,11.80
2010,03,23,16,33,11.80
2010,03,23,16,34,11.80
2010,03,23,16,35,11.70
2010,03,23,16,36,11.70
2010,03,23,16,37,11.70
2010,03,23,16,38,11.70
2010,03,23,16,39,11.70
2010,03,23,16,40,11.80
2010,03,23,16,41,11.70
2010,03,23,16,42,11.70
2010,03,23,16,43,11.60
2010,03,23,16,44,11.60
2010,03,23,16,45,11.50
2010,03,23,16,46,11.50
2010,03,23,16,47,11.40
2010,03,23,16,48,11.40
2010,03,23,16,49,11.40
2010,03,23,16,50,11.40
2010,03,23,16,51,11.40
2010,03,23,16,52,11.40
2010,03,23,16,53,11.30
2010,03,23,16,54,11.30
2010,03,23,16,55,11.30
2010,03,23,16,56,11.20
2010,03,23,16,57,11.20
2010,03,23,16,58,11.20
2010,03,23,16,59,11.20
2010,03,23,17,00,11.20
2010,03,23,17,01,11.20
2010,03,23,17,02,11.20
2010,03,23,17,03,11.20
2010,03,23,17,04,11.10
2010,03,23,17,05,11.10
2010,03,23,17,06,11.10
2010,03,23,17,07,11.10
2010,03,23,17,08,11.10
2010,03,23,17,09,11.10
2010,03,23,17,10,11.10
2010,03,23,17,11,11.00
2010,03,23,17,12,10.90
2010,03,23,17,13,10.80
2010,03,23,17,14,10.80
2010,03,23,17,15,10.70
2010,03,23,17,16,10.70
2010,03,23,17,17,10.70
2010,03,23,17,18,10.70
2010,03,23,17,19,10.70
2010,03,23,17,20,10.60
2010,03,23,17,21,10.60
2010,03,23,17,22,10.60
2010,03,23,17,23,10.60
2010,03,23,17,24,10.60
2010,03,23,17,25,10.60
2010,03,23,17,26,10.60
2010,03,23,17,27,10.70
2010,03,23,17,28,10.70
2010,03,23,17,29,10.70
2010,03,23,17,30,10.70
2010,03,23,17,31,10.80
2010,03,23,17,32,10.80
2010,03,23,17,33,10.80
2010,03,23,17,34,10.80
2010,03,23,17,35,10.80
2010,03,23,17,36,10.70
2010,03,23,17,37,10.70
2010,03,23,17,38,10.70
2010,03,23,17,39,10.60
2010,03,23,17,40,10.60
2010,03,23,17,41,10.60
2010,03,23,17,42,10.60
2010,03,23,17,43,10.60
2010,03,23,17,44,10.60
2010,03,23,17,45,10.50
2010,03,23,17,46,10.50
2010,03,23,17,47,10.40
2010,03,23,17,48,10.40
2010,03,23,17,49,10.40
2010,03,23,17,50,10.30
2010,03,23,17,51,10.30
2010,03,23,17,52,10.30